Flag for Spain Weather past 2 weeks in Sevilla, Spain

Now
75 °F

Sunny.


Feels Like: 77 °F
Forecast: 63 / 93 °F
Wind: 14 mph from Southwest

Location: Sevilla / San Pablo

Current Time: Jul 29, 2014 at 9:57:19 PM

Latest Report: Jul 29, 2014 at 9:30 PM


Visibility: 10 mi

Pressure: 29.89 "Hg

Humidity: 61%

Dew point: 61 °F

Location of SevillaLocation

Historic Weather in Sevilla — Graph

°F

Sevilla temperature yesterday

Maximum temperature yesterday: 86 °F (at 3:30 PM)
Minimum temperature yesterday: 66 °F (at 3:30 AM)
Average temperature yesterday: 75 °F

Past Weeks' High & Low Weather Summary

 TemperatureHumidityPressure
High102 °F (Jul 16, 5:30 PM)94% (Jul 24, 7:00 AM)30.09 "Hg (Jul 24, 7:00 AM)
Low63 °F (Jul 21, 6:00 AM)12% (Jul 21, 8:30 PM)29.77 "Hg (Jul 24, 6:30 PM)
Average80 °F51%29.95 "Hg
* Reported Jul 14 8:00 PM — Jul 29 8:30 PM, Sevilla, Weather by CustomWeather, © 2014

Note: Actual official high and low records may vary slightly from our data, if they occured in-between our weather recording intervals... More about our weather records

Advertising

Sevilla weather history for previous 24 hours

 ConditionsComfort  
Time TempWeatherWind HumidityBarometerVisibility
8:30 PM
Jul 29
79 °FSunny.14 mph54%29.89 "Hg10 mi
8:00 PM81 °FSunny.13 mph51%29.86 "Hg10 mi
7:30 PM82 °FSunny.13 mph48%29.86 "Hg10 mi
7:00 PM84 °FSunny.14 mph45%29.86 "Hg10 mi
6:30 PM84 °FPassing clouds.13 mph45%29.86 "HgN/A
6:00 PM84 °FPassing clouds.12 mph43%29.89 "HgN/A
5:30 PM84 °FPassing clouds.10 mph43%29.89 "HgN/A
5:00 PM84 °FPassing clouds.8 mph43%29.89 "HgN/A
4:30 PM84 °FPassing clouds.9 mph45%29.89 "HgN/A
4:00 PM84 °FPassing clouds.8 mph45%29.92 "HgN/A
3:30 PM82 °FSunny.7 mph48%29.92 "Hg10 mi
3:00 PM81 °FPassing clouds.7 mph54%29.92 "HgN/A
2:30 PM79 °FScattered clouds.5 mph61%29.95 "HgN/A
2:00 PM77 °FPartly sunny.6 mph65%29.95 "HgN/A
1:30 PM75 °FPartly sunny.8 mph65%29.95 "HgN/A
1:00 PM73 °FOvercast.7 mph74%29.98 "HgN/A
12:30 PM72 °FOvercast.7 mph73%29.98 "HgN/A
12:00 PM72 °FOvercast.7 mph73%29.95 "HgN/A
11:30 AM72 °FOvercast.5 mph73%29.95 "HgN/A
11:00 AM72 °FOvercast.7 mph73%29.95 "HgN/A
10:30 AM70 °FOvercast.6 mph78%29.95 "HgN/A
10:00 AM70 °FOvercast.5 mph78%29.95 "Hg4 mi
9:30 AM70 °FOvercast.6 mph78%29.95 "Hg4 mi
9:00 AM68 °FOvercast.5 mph83%29.95 "Hg5 mi
8:30 AM68 °FPartly sunny.3 mph83%29.92 "Hg5 mi
8:00 AM68 °FPassing clouds.5 mph83%29.92 "Hg5 mi
7:30 AM68 °FPassing clouds.6 mph83%29.92 "Hg6 mi
7:00 AM68 °FPassing clouds.8 mph83%29.92 "HgN/A
6:30 AM68 °FOvercast.5 mph83%29.92 "HgN/A
6:00 AM68 °FOvercast.7 mph83%29.92 "HgN/A
5:30 AM68 °FOvercast.6 mph83%29.92 "HgN/A
4:30 AM68 °FPassing clouds.7 mph78%29.95 "HgN/A
4:00 AM68 °FPassing clouds.8 mph78%29.95 "HgN/A
3:30 AM68 °FPassing clouds.6 mph78%29.95 "HgN/A
1:00 AM68 °FPassing clouds.9 mph78%29.95 "HgN/A
12:30 AM70 °FPassing clouds.13 mph73%29.95 "HgN/A
12:00 AM70 °FClear.14 mph73%29.95 "Hg10 mi
11:30 PM
Jul 28
70 °FClear.12 mph73%29.95 "Hg10 mi
11:00 PM70 °FPassing clouds.13 mph73%29.95 "HgN/A
10:30 PM72 °FSunny.14 mph69%29.95 "Hg10 mi
10:00 PM73 °FSunny.16 mph65%29.92 "Hg10 mi
9:30 PM75 °FSunny.15 mph61%29.92 "Hg10 mi
9:00 PM75 °FPassing clouds.17 mph57%29.92 "HgN/A
Weather by CustomWeather, © 2014

See weather overviewHow to use our weather pages